Theta_e
290 290 290 290 290 289 290 291 293 294 294 296 298 299 299 300 302 302 303 304 307 312
289 289 289 289 290 290 290 291 291 292 292 294 296 298 298 298 299 301 303 304 305 308
288 288 288 289 288 289 289 290 290 290 291 292 295 297 297 297 297 298 301 303 304 305
287 287 287 287 288 288 289 289 289 289 289 290 292 295 295 295 295 296 298 301 303 304
286 286 286 286 287 288 287 288 288 288 288 289 291 292 293 293 293 294 295 298 300 300
285 285 285 286 286 287 287 287 288 288 288 289 289 290 291 293 292 293 293 296 298 299
284 284 285 285 286 286 287 286 287 287 287 288 289 289 290 292 292 292 292 294 297 299
284 284 284 285 285 286 286 286 286 286 287 287 288 289 290 291 291 292 292 294 295 298
283 283 283 284 284 284 284 285 285 285 286 286 287 289 290 291 291 292 293 293 294 296
282 282 282 282 282 282 283 283 284 285 286 286 287 289 290 292 292 292 293 294 294 296
281 280 281 281 281 281 282 282 283 284 286 286 287 289 290 292 292 292 293 293 295 295
280 279 280 280 280 281 282 283 283 285 285 285 287 289 290 291 291 291 292 293 295 296
280 279 279 280 280 282 283 283 285 285 286 287 287 289 291 292 290 291 292 293 294 296
279 279 280 280 281 282 283 283 285 285 286 287 287 288 291 293 291 291 291 292 293 295
Wind_Speed
14 9 11 11 11 10 10 11 13 13 13 14 13 11 11 8 8 10 8 11 10 10
13 14 13 15 13 10 12 11 13 14 14 14 14 12 12 9 9 11 9 9 10 11
15 14 14 14 15 15 14 14 14 14 14 14 14 13 13 10 10 10 9 8 10 11
15 15 14 14 14 14 15 16 15 15 14 14 14 13 13 12 13 12 12 12 11 12
15 15 14 14 14 14 15 15 15 15 15 15 14 13 14 13 12 14 13 13 13 12
16 15 15 15 15 15 15 15 15 15 15 15 15 15 15 14 12 14 14 14 13 12
16 16 16 16 16 16 15 16 16 15 16 15 16 16 15 15 13 14 14 15 14 14
16 16 16 16 16 16 16 16 17 17 16 16 14 12 14 15 12 13 13 14 14 14
16 16 16 16 16 17 17 16 16 16 16 16 12 20 21 20 13 14 15 15 16 16
16 17 17 17 17 16 17 16 17 17 16 17 16 21 22 24 14 14 14 15 14 13
16 17 18 17 17 17 14 16 15 16 17 16 14 22 23 24 16 14 16 15 15 15
17 18 18 17 17 16 14 15 15 15 17 17 16 22 23 22 13 14 16 14 14 15
17 17 17 17 17 16 15 15 13 15 16 19 17 21 25 20 10 10 9 12 13 21
18 17 17 17 15 15 15 15 15 15 15 16 15 15 22 22 11 9 7 8 8 9
Wind_Direction
316 310 308 305 307 302 300 298 302 299 300 297 292 291 291 290 289 280 266 273 275 274
314 312 306 304 302 298 298 298 297 298 297 293 290 288 291 282 280 285 274 261 264 268
312 310 306 302 300 301 299 298 297 296 294 292 288 285 287 282 283 278 276 260 248 263
311 309 305 301 300 299 301 299 299 297 295 289 283 283 283 277 281 279 276 274 264 260
308 307 304 302 302 300 297 295 294 294 291 289 285 284 278 274 272 278 275 274 273 268
309 309 307 305 304 302 300 296 293 289 287 286 287 284 279 273 265 272 275 274 273 269
309 310 308 306 304 302 301 298 295 291 287 285 282 281 279 275 266 269 270 269 268 266
309 308 306 305 304 304 302 299 296 293 288 284 280 277 278 273 265 269 273 268 266 263
310 308 307 306 305 302 300 299 296 291 287 283 278 278 276 274 268 269 268 265 267 266
311 308 307 309 305 300 299 298 295 291 286 281 278 275 273 273 268 268 264 260 261 262
310 307 307 305 301 299 297 295 293 290 286 282 280 277 274 276 272 268 265 261 257 255
311 307 305 303 303 298 296 292 291 288 288 284 280 281 281 278 275 267 259 252 249 247
307 304 303 302 299 297 295 288 285 285 283 281 281 280 280 284 274 279 260 246 242 247
308 305 302 302 301 298 296 290 285 285 285 284 277 276 281 281 273 276 278 257 246 240